GDENN ENGS-ENOP

Flight info

Callsign GDENN
Flight time 0h 50m
Altitude FL070
Route ENLN LOW LEVEL VFR
Aircraft AEST/L-S/N

Departure

Time 2026-05-06 18:00
Airport Snåsa Airfield Grønøra (ENGS)

Arrival

Time 2026-05-06 18:50
Airport Fagerhaug Airfield (ENOP)
Time Latitude Longitude Altitude Speed Heading
2026-05-06 17:15 64.18451 12.17446 85 ft 0 kts 29°
2026-05-06 17:24 64.18452 12.17446 85 ft 0 kts 29°
2026-05-06 17:24 64.18452 12.17447 85 ft 0 kts 30°
2026-05-06 17:57 64.18454 12.17449 85 ft 1 kts 24°
2026-05-06 17:57 64.18473 12.17434 84 ft 0 kts 316°
2026-05-06 17:58 64.18473 12.17435 84 ft 0 kts 315°
2026-05-06 17:58 64.18472 12.17426 85 ft 2 kts 244°
2026-05-06 17:58 64.18461 12.17420 83 ft 2 kts 202°
2026-05-06 17:59 64.18458 12.17415 83 ft 0 kts 216°
2026-05-06 17:59 64.18247 12.16897 86 ft 80 kts 226°
2026-05-06 17:59 64.17918 12.15840 300 ft 89 kts 249°
2026-05-06 17:59 64.17902 12.14184 406 ft 121 kts 278°
2026-05-06 18:00 64.17930 12.12143 654 ft 134 kts 263°
2026-05-06 18:00 64.17824 12.10098 964 ft 127 kts 261°
2026-05-06 18:00 64.17649 12.08035 1025 ft 137 kts 257°
2026-05-06 18:00 64.17446 12.05932 1242 ft 132 kts 257°
2026-05-06 18:01 64.17230 12.03859 1353 ft 136 kts 257°
2026-05-06 18:01 64.16994 12.01726 1454 ft 141 kts 256°
2026-05-06 18:01 64.16687 11.99520 1465 ft 149 kts 249°
2026-05-06 18:01 64.16282 11.97295 1479 ft 156 kts 245°
2026-05-06 18:02 64.15814 11.94999 1517 ft 159 kts 245°
2026-05-06 18:02 64.15342 11.92700 1486 ft 166 kts 245°
2026-05-06 18:02 64.14852 11.90280 1517 ft 166 kts 245°
2026-05-06 18:02 64.14364 11.87813 1419 ft 175 kts 246°
2026-05-06 18:03 64.13903 11.85229 1414 ft 174 kts 250°
2026-05-06 18:03 64.13496 11.82700 1522 ft 166 kts 249°
2026-05-06 18:03 64.13099 11.80114 1287 ft 179 kts 253°
2026-05-06 18:03 64.12740 11.77354 1152 ft 182 kts 254°
2026-05-06 18:04 64.12401 11.74609 1175 ft 177 kts 255°
2026-05-06 18:04 64.12077 11.71913 1135 ft 177 kts 253°
2026-05-06 18:04 64.11667 11.69236 1030 ft 180 kts 249°
2026-05-06 18:04 64.11196 11.66601 1027 ft 178 kts 246°
2026-05-06 18:05 64.10428 11.64453 946 ft 180 kts 210°
2026-05-06 18:05 64.09211 11.63650 812 ft 184 kts 190°
2026-05-06 18:05 64.07973 11.63204 870 ft 177 kts 189°
2026-05-06 18:05 64.06769 11.62590 782 ft 180 kts 197°
2026-05-06 18:06 64.05592 11.61622 758 ft 179 kts 206°
2026-05-06 18:06 64.04551 11.60143 798 ft 174 kts 219°
2026-05-06 18:06 64.03675 11.58274 782 ft 175 kts 227°
2026-05-06 18:06 64.02898 11.56149 820 ft 173 kts 234°
2026-05-06 18:07 64.02222 11.53880 804 ft 175 kts 238°
2026-05-06 18:07 64.01617 11.51472 834 ft 175 kts 242°
2026-05-06 18:07 64.01063 11.49006 889 ft 177 kts 243°
2026-05-06 18:07 64.00497 11.46477 875 ft 181 kts 243°
2026-05-06 18:08 63.99871 11.43983 904 ft 182 kts 240°
2026-05-06 18:08 63.99217 11.41506 911 ft 184 kts 237°
2026-05-06 18:08 63.98530 11.39056 894 ft 184 kts 238°
2026-05-06 18:08 63.97862 11.36587 881 ft 182 kts 240°
2026-05-06 18:09 63.97301 11.34100 1018 ft 171 kts 245°
2026-05-06 18:09 63.96813 11.31667 1001 ft 172 kts 247°
2026-05-06 18:09 63.96355 11.29140 965 ft 172 kts 248°
2026-05-06 18:09 63.95881 11.26637 923 ft 174 kts 246°
2026-05-06 18:10 63.95344 11.24146 791 ft 179 kts 242°
2026-05-06 18:10 63.94741 11.21718 911 ft 164 kts 237°
2026-05-06 18:10 63.94224 11.19651 1242 ft 149 kts 239°
2026-05-06 18:10 63.93704 11.17230 326 ft 200 kts 249°
2026-05-06 18:11 63.93146 11.14540 578 ft 177 kts 244°
2026-05-06 18:11 63.92522 11.12182 593 ft 173 kts 228°
2026-05-06 18:11 63.91759 11.10104 631 ft 170 kts 234°
2026-05-06 18:11 63.91205 11.07781 685 ft 166 kts 245°
2026-05-06 18:12 63.90716 11.05428 732 ft 164 kts 245°
2026-05-06 18:12 63.90236 11.03102 775 ft 163 kts 245°
2026-05-06 18:12 63.89755 11.00769 776 ft 164 kts 245°
2026-05-06 18:12 63.89269 10.98408 767 ft 166 kts 245°
2026-05-06 18:13 63.88784 10.96033 770 ft 167 kts 248°
2026-05-06 18:13 63.88459 10.93516 769 ft 167 kts 256°
2026-05-06 18:13 63.88178 10.90957 769 ft 167 kts 256°
2026-05-06 18:13 63.87880 10.88404 756 ft 169 kts 252°
2026-05-06 18:14 63.87487 10.85898 744 ft 169 kts 250°
2026-05-06 18:14 63.87088 10.83414 771 ft 167 kts 250°
2026-05-06 18:14 63.86633 10.80985 768 ft 168 kts 245°
2026-05-06 18:14 63.86085 10.78649 767 ft 168 kts 241°
2026-05-06 18:15 63.85517 10.76335 756 ft 169 kts 241°
2026-05-06 18:15 63.84947 10.74021 765 ft 168 kts 241°
2026-05-06 18:15 63.84355 10.71747 762 ft 168 kts 234°
2026-05-06 18:15 63.83641 10.69649 755 ft 169 kts 232°
2026-05-06 18:16 63.82916 10.67560 751 ft 169 kts 232°
2026-05-06 18:16 63.82191 10.65477 764 ft 168 kts 232°
2026-05-06 18:16 63.81448 10.63345 770 ft 180 kts 232°
2026-05-06 18:16 63.80663 10.61087 924 ft 176 kts 233°
2026-05-06 18:17 63.80003 10.58778 1121 ft 181 kts 239°
2026-05-06 18:17 63.79084 10.56530 775 ft 205 kts 229°
2026-05-06 18:17 63.78382 10.53984 1321 ft 175 kts 252°
2026-05-06 18:17 63.78105 10.51371 1093 ft 177 kts 249°
2026-05-06 18:18 63.77327 10.48976 662 ft 197 kts 228°
2026-05-06 18:18 63.76414 10.46778 901 ft 188 kts 224°
2026-05-06 18:18 63.75459 10.44751 928 ft 192 kts 225°
2026-05-06 18:18 63.74557 10.42484 926 ft 195 kts 229°
2026-05-06 18:19 63.73675 10.40201 1036 ft 192 kts 230°
2026-05-06 18:19 63.72803 10.37940 1112 ft 192 kts 229°
2026-05-06 18:19 63.71903 10.35703 1154 ft 193 kts 228°
2026-05-06 18:19 63.71063 10.33344 1190 ft 194 kts 241°
2026-05-06 18:20 63.70517 10.30541 1170 ft 197 kts 243°
2026-05-06 18:20 63.69622 10.28191 1080 ft 202 kts 221°
2026-05-06 18:20 63.68602 10.26116 1264 ft 192 kts 223°
2026-05-06 18:20 63.67661 10.24055 1437 ft 188 kts 228°
2026-05-06 18:21 63.66849 10.21672 1360 ft 197 kts 236°
2026-05-06 18:21 63.66130 10.19046 1363 ft 197 kts 241°
2026-05-06 18:21 63.65450 10.16391 1319 ft 201 kts 239°
2026-05-06 18:21 63.64698 10.13646 1209 ft 205 kts 238°
2026-05-06 18:22 63.63967 10.11089 1336 ft 188 kts 237°
2026-05-06 18:22 63.63251 10.08629 1203 ft 188 kts 236°
2026-05-06 18:22 63.62479 10.06310 1144 ft 184 kts 229°
2026-05-06 18:22 63.61602 10.04222 1058 ft 183 kts 225°
2026-05-06 18:23 63.60697 10.02234 965 ft 183 kts 224°
2026-05-06 18:23 63.59766 10.00258 821 ft 185 kts 223°
2026-05-06 18:23 63.58835 9.98340 804 ft 180 kts 222°
2026-05-06 18:23 63.57893 9.96501 735 ft 180 kts 220°
2026-05-06 18:24 63.56954 9.94704 726 ft 176 kts 221°
2026-05-06 18:24 63.56027 9.92933 691 ft 175 kts 219°
2026-05-06 18:24 63.55039 9.91312 613 ft 178 kts 210°
2026-05-06 18:24 63.53897 9.90485 645 ft 172 kts 184°
2026-05-06 18:25 63.52701 9.90733 584 ft 174 kts 166°
2026-05-06 18:25 63.51555 9.91710 468 ft 179 kts 155°
2026-05-06 18:25 63.50440 9.92955 417 ft 178 kts 153°
2026-05-06 18:25 63.49362 9.94260 420 ft 176 kts 153°
2026-05-06 18:26 63.48273 9.95487 410 ft 174 kts 154°
2026-05-06 18:26 63.47199 9.96652 441 ft 171 kts 156°
2026-05-06 18:26 63.46088 9.97647 383 ft 174 kts 161°
2026-05-06 18:26 63.44929 9.98444 355 ft 174 kts 165°
2026-05-06 18:27 63.43768 9.99093 380 ft 171 kts 167°
2026-05-06 18:27 63.42615 9.99712 381 ft 171 kts 167°
2026-05-06 18:27 63.41456 10.00303 363 ft 172 kts 167°
2026-05-06 18:27 63.40303 10.00967 363 ft 172 kts 166°
2026-05-06 18:28 63.39148 10.01638 348 ft 172 kts 165°
2026-05-06 18:28 63.38014 10.02492 334 ft 172 kts 158°
2026-05-06 18:28 63.36956 10.03721 320 ft 173 kts 146°
2026-05-06 18:28 63.36020 10.05410 285 ft 174 kts 137°
2026-05-06 18:29 63.35176 10.07305 310 ft 172 kts 135°
2026-05-06 18:29 63.34337 10.09176 315 ft 171 kts 134°
2026-05-06 18:29 63.33511 10.11109 279 ft 173 kts 133°
2026-05-06 18:29 63.32729 10.13129 280 ft 172 kts 131°
2026-05-06 18:30 63.31959 10.15148 302 ft 171 kts 131°
2026-05-06 18:30 63.31153 10.17072 354 ft 167 kts 136°
2026-05-06 18:30 63.30321 10.18827 446 ft 163 kts 138°
2026-05-06 18:30 63.29498 10.20407 671 ft 152 kts 142°
2026-05-06 18:31 63.28630 10.21748 752 ft 153 kts 148°
2026-05-06 18:31 63.27695 10.22929 784 ft 156 kts 152°
2026-05-06 18:31 63.26728 10.24026 852 ft 156 kts 155°
2026-05-06 18:31 63.25763 10.25122 904 ft 156 kts 153°
2026-05-06 18:32 63.24824 10.26332 951 ft 158 kts 148°
2026-05-06 18:32 63.23859 10.27499 1008 ft 157 kts 154°
2026-05-06 18:32 63.22817 10.28157 1020 ft 155 kts 174°
2026-05-06 18:32 63.21753 10.28420 801 ft 154 kts 172°
2026-05-06 18:33 63.20698 10.28805 604 ft 158 kts 171°
2026-05-06 18:33 63.19627 10.29345 658 ft 155 kts 163°
2026-05-06 18:33 63.18621 10.30066 754 ft 151 kts 166°
2026-05-06 18:33 63.17561 10.30137 618 ft 157 kts 191°
2026-05-06 18:34 63.16547 10.29424 672 ft 149 kts 207°
2026-05-06 18:34 63.15664 10.28266 648 ft 151 kts 214°
2026-05-06 18:34 63.14807 10.26927 662 ft 151 kts 215°
2026-05-06 18:34 63.13902 10.25760 679 ft 153 kts 206°
2026-05-06 18:35 63.12943 10.24738 729 ft 151 kts 206°
2026-05-06 18:35 63.12006 10.23727 797 ft 150 kts 207°
2026-05-06 18:35 63.10993 10.23187 758 ft 155 kts 178°
2026-05-06 18:35 63.09928 10.23666 737 ft 157 kts 161°
2026-05-06 18:36 63.08947 10.24618 812 ft 155 kts 150°
2026-05-06 18:36 63.08021 10.25842 833 ft 156 kts 148°
2026-05-06 18:36 63.07209 10.27413 824 ft 159 kts 129°
2026-05-06 18:36 63.06385 10.28897 940 ft 151 kts 161°
2026-05-06 18:37 63.05353 10.29367 957 ft 153 kts 173°
2026-05-06 18:37 63.04294 10.29724 966 ft 155 kts 168°
2026-05-06 18:37 63.03281 10.29523 1171 ft 139 kts 210°
2026-05-06 18:37 63.02524 10.28301 1324 ft 135 kts 218°
2026-05-06 18:38 63.01788 10.26961 1330 ft 141 kts 224°
2026-05-06 18:38 63.01089 10.25333 1262 ft 151 kts 225°
2026-05-06 18:38 63.00205 10.24240 1347 ft 147 kts 184°
2026-05-06 18:38 62.99140 10.24330 1206 ft 159 kts 185°
2026-05-06 18:39 62.98214 10.23334 1367 ft 147 kts 224°
2026-05-06 18:39 62.97550 10.21625 1354 ft 149 kts 232°
2026-05-06 18:39 62.96810 10.19972 1251 ft 155 kts 216°
2026-05-06 18:40 62.94775 10.19226 1287 ft 152 kts 182°
2026-05-06 18:40 62.93744 10.18888 1343 ft 147 kts 197°
2026-05-06 18:40 62.92976 10.17622 1429 ft 140 kts 246°
2026-05-06 18:40 62.92664 10.15556 1397 ft 142 kts 235°
2026-05-06 18:41 62.91844 10.14405 1415 ft 143 kts 206°
2026-05-06 18:41 62.90964 10.13371 1487 ft 143 kts 210°
2026-05-06 18:41 62.90131 10.12181 1527 ft 145 kts 212°
2026-05-06 18:41 62.89266 10.11002 1564 ft 147 kts 212°
2026-05-06 18:42 62.88399 10.09874 1664 ft 144 kts 211°
2026-05-06 18:42 62.87517 10.08789 1686 ft 147 kts 212°
2026-05-06 18:42 62.86786 10.07359 1859 ft 134 kts 251°
2026-05-06 18:42 62.86744 10.05315 1799 ft 147 kts 277°
2026-05-06 18:43 62.86875 10.03120 1769 ft 148 kts 243°
2026-05-06 18:43 62.85943 10.02318 1727 ft 148 kts 188°
2026-05-06 18:43 62.84943 10.02158 1850 ft 144 kts 185°
2026-05-06 18:43 62.83914 10.02056 1800 ft 152 kts 184°
2026-05-06 18:44 62.82892 10.01492 1812 ft 152 kts 192°
2026-05-06 18:44 62.81882 10.00963 1948 ft 145 kts 195°
2026-05-06 18:44 62.80905 10.00408 1978 ft 148 kts 190°
2026-05-06 18:44 62.79858 9.99993 1850 ft 159 kts 206°
2026-05-06 18:45 62.78866 9.98672 1556 ft 175 kts 210°
2026-05-06 18:45 62.77753 9.98009 1707 ft 161 kts 185°
2026-05-06 18:45 62.76657 9.98246 1713 ft 162 kts 167°
2026-05-06 18:45 62.75566 9.98231 1672 ft 162 kts 204°
2026-05-06 18:46 62.74580 9.97471 1953 ft 147 kts 188°
2026-05-06 18:46 62.73566 9.98167 2103 ft 162 kts 147°
2026-05-06 18:46 62.72571 9.99038 2422 ft 155 kts 181°
2026-05-06 18:46 62.71664 9.98012 2494 ft 147 kts 223°
2026-05-06 18:47 62.71064 9.96466 2414 ft 123 kts 234°
2026-05-06 18:47 62.70603 9.95060 2371 ft 105 kts 232°
2026-05-06 18:47 62.70057 9.94103 2140 ft 103 kts 210°
2026-05-06 18:47 62.69433 9.93594 2069 ft 90 kts 198°
2026-05-06 18:48 62.68847 9.93224 1942 ft 81 kts 198°
2026-05-06 18:48 62.68344 9.92876 1960 ft 79 kts 190°
2026-05-06 18:48 62.67875 9.92318 2085 ft 82 kts 226°
2026-05-06 18:48 62.67500 9.91424 2263 ft 76 kts 220°
2026-05-06 18:49 62.67084 9.90691 2410 ft 80 kts 223°
2026-05-06 18:49 62.66681 9.89548 2244 ft 105 kts 239°
2026-05-06 18:49 62.66318 9.88350 2340 ft 88 kts 230°
2026-05-06 18:49 62.65790 9.87477 2132 ft 102 kts 213°
2026-05-06 18:50 62.65329 9.86376 1956 ft 91 kts 246°
2026-05-06 18:50 62.65162 9.85307 1841 ft 58 kts 249°
2026-05-06 18:50 62.65070 9.84758 1832 ft 0 kts 248°
2026-05-06 18:50 62.65070 9.84750 1832 ft 1 kts 336°
2026-05-06 18:51 62.65080 9.84798 1834 ft 9 kts 69°
2026-05-06 18:51 62.65101 9.84938 1836 ft 16 kts 75°
2026-05-06 18:51 62.65148 9.85217 1840 ft 12 kts 69°
2026-05-06 18:51 62.65146 9.85420 1842 ft 13 kts 137°
2026-05-06 18:52 62.65074 9.85471 1829 ft 2 kts 161°
2026-05-06 18:52 62.65064 9.85464 1827 ft 4 kts 239°
2026-05-06 18:52 62.65053 9.85394 1828 ft 6 kts 186°
2026-05-06 18:52 62.65051 9.85443 1826 ft 0 kts 64°